This demonstration page uses our WeatherBlox Daily Observations layout. Learn more.

Hourly Observations for September 20, 2015

Temp ( °F °C ) Dew Point ( °F °C ) Humidity (%) Winds ( mph kmh ) Pressure ( in mb ) Visibility ( mi km ) Precip ( " mm )
12:15 am 00:15 Clear 57 13.8 47 8.6 71 71 SSE 9 15 30.03 1017 10 16.0934 0 0
12:30 am 00:30 Clear 57 14 47 8.6 70 70 SSE 9 15 30.03 1017 10 16.0934 0 0
12:55 am 00:55 undefined 57 13.7 47 8.6 72 72 SSE 10 17 30.03 1017 10 16.0934 0 0
1:15 am 01:15 Clear 56 13.4 48 8.7 73 73 SSE 8 13 30.06 1018 10 16.0934 0 0
1:35 am 01:35 Clear 55 13 48 8.8 76 76 SSE 8 13 30.06 1018 10 16.0934 0 0
1:55 am 01:55 Clear 55 13 48 8.9 76 76 S 9 15 30.06 1018 10 16.0934 0 0
2:15 am 02:15 Clear 55 12.7 48 9 78 78 S 10 17 30 1016 10 16.0934 0 0
2:35 am 02:35 Clear 55 13 48 8.9 76 76 S 9 15 30 1016 10 16.0934 0 0
2:55 am 02:55 Clear 55 12.7 48 8.9 78 78 S 9 15 30 1016 10 16.0934 0 0
3:15 am 03:15 Clear 55 12.5 48 9 79 79 SSE 8 13 30 1016 10 16.0934 0 0
3:35 am 03:35 Clear 54 12.3 48 9 80 80 SSE 9 15 30.03 1017 10 16.0934 0 0
3:55 am 03:55 Clear 53 11.6 48 8.9 84 84 SSE 7 11 30.03 1017 10 16.0934 0 0
4:15 am 04:15 Clear 53 11.7 48 9 84 84 S 7 11 30.03 1017 10 16.0934 0 0
4:35 am 04:35 Clear 53 11.6 48 9 84 84 S 7 11 30.03 1017 10 16.0934 0 0
4:55 am 04:55 Clear 53 11.5 48 9 85 85 S 5 7 30.03 1017 10 16.0934 0 0
5:15 am 05:15 Clear 52 11.3 48 9 86 86 S 6 9 30.03 1017 10 16.0934 0 0
5:35 am 05:35 Clear 52 11.3 48 9 86 86 S 5 7 30.03 1017 10 16.0934 0 0
5:55 am 05:55 Clear 51 10.8 48 8.8 88 88 S 5 7 30.03 1017 10 16.0934 0 0
6:15 am 06:15 Clear 51 10.8 48 9 89 89 S 6 9 30.03 1017 10 16.0934 0 0
6:35 am 06:35 Clear 52 11 48 9 88 88 S 9 15 30.03 1017 10 16.0934 0 0
6:55 am 06:55 Clear 52 11 48 9 88 88 S 6 9 30.03 1017 10 16.0934 0 0
7:15 am 07:15 Clear 51 10.5 48 8.8 89 89 S 6 9 30.03 1017 10 16.0934 0 0
7:35 am 07:35 Sunny 51 10.5 48 8.8 89 89 S 6 9 30.06 1018 10 16.0934 0 0
7:55 am 07:55 Sunny 51 10.6 48 9 90 90 S 6 9 30.06 1018 10 16.0934 0 0
8:15 am 08:15 Sunny 52 11.2 49 9.4 89 89 S 7 11 30.06 1018 10 16.0934 0 0
8:35 am 08:35 Sunny 54 12.1 50 9.9 87 87 S 7 11 30.06 1018 10 16.0934 0 0
8:55 am 08:55 Sunny 56 13.1 51 10.3 83 83 S 9 15 30.06 1018 10 16.0934 0 0
9:15 am 09:15 Sunny 58 14.5 51 10.7 78 78 S 14 22 30.03 1017 10 16.0934 0 0
9:35 am 09:35 Sunny 60 15.5 52 11.1 75 75 S 17 28 30.03 1017 10 16.0934 0 0
9:55 am 09:55 Sunny 63 17 53 11.4 70 70 S 17 28 29.97 1015 10 16.0934 0 0
10:15 am 10:15 Sunny 64 18 51 10.7 63 63 S 15 24 29.97 1015 10 16.0934 0 0
10:35 am 10:35 Sunny 66 18.9 51 10.5 58 58 S 15 24 29.97 1015 10 16.0934 0 0
10:55 am 10:55 Sunny 68 20.2 51 10.6 54 54 S 15 24 29.94 1014 10 16.0934 0 0
11:15 am 11:15 Sunny 70 21.3 51 10.5 50 50 SSW 14 22 29.94 1014 10 16.0934 0 0
11:35 am 11:35 Sunny 71 21.7 51 10.6 49 49 SSW 15 24 29.94 1014 10 16.0934 0 0
11:55 am 11:55 Sunny 73 22.7 52 11.1 48 48 S 15 24 29.94 1014 10 16.0934 0 0
12:15 pm 12:15 Sunny 73 22.9 52 11.1 47 47 SSW 16 26 29.91 1013 10 16.0934 0 0
12:35 pm 12:35 Sunny 75 23.8 52 11.2 45 45 SSW 15 24 29.88 1012 10 16.0934 0 0
12:55 pm 12:55 Sunny 76 24.6 52 11.1 43 43 S 12 19 29.88 1012 10 16.0934 0 0
1:15 pm 13:15 Sunny 78 25.3 53 11.5 42 42 SW 10 17 29.88 1012 10 16.0934 0 0
1:35 pm 13:35 Sunny 78 25.8 52 11.2 40 40 S 10 17 29.88 1012 10 16.0934 0 0
1:55 pm 13:55 Sunny 79 25.9 52 11.1 40 40 S 13 20 29.85 1011 10 16.0934 0 0
2:15 pm 14:15 Sunny 80 26.7 52 11 37 37 S 9 15 29.83 1010 10 16.0934 0 0
2:35 pm 14:35 Sunny 81 27.1 51 10.8 36 36 SSW 14 22 29.83 1010 10 16.0934 0 0
2:55 pm 14:55 Sunny 81 27.4 51 10.5 35 35 S 13 20 29.83 1010 10 16.0934 0 0
3:15 pm 15:15 Sunny 81 27.3 51 10.6 35 35 S 13 20 29.83 1010 10 16.0934 0 0
3:35 pm 15:35 Sunny 82 27.8 51 10.6 34 34 S 10 17 29.8 1009 10 16.0934 0 0
3:55 pm 15:55 Sunny 82 27.9 52 10.9 35 35 S 10 17 29.8 1009 10 16.0934 0 0
4:15 pm 16:15 Sunny 83 28.2 52 11 34 34 S 18 30 29.8 1009 10 16.0934 0 0
4:35 pm 16:35 Sunny 82 27.7 52 11.3 36 36 S 13 20 29.8 1009 10 16.0934 0 0
4:55 pm 16:55 Sunny 82 27.7 53 11.4 36 36 SSE 12 19 29.8 1009 10 16.0934 0 0
5:15 pm 17:15 Sunny 82 27.5 53 11.5 37 37 S 13 20 29.8 1009 10 16.0934 0 0
5:35 pm 17:35 Sunny 82 27.5 53 11.8 38 38 SSE 13 20 29.8 1009 10 16.0934 0 0
5:55 pm 17:55 Sunny 81 27.3 53 11.8 38 38 SSE 13 20 29.8 1009 10 16.0934 0 0
6:35 pm 18:35 Sunny 80 26.6 54 12 40 40 S 10 17 29.8 1009 10 16.0934 0 0
6:55 pm 18:55 Sunny 79 26 55 12.5 43 43 SSE 12 19 29.83 1010 10 16.0934 0 0
7:15 pm 19:15 Sunny 77 25 55 12.7 46 46 SSE 9 15 29.83 1010 10 16.0934 0 0
7:35 pm 19:35 Sunny 75 23.9 55 13 51 51 SSE 8 13 29.83 1010 10 16.0934 0 0
7:55 pm 19:55 Clear 73 23 55 12.8 53 53 SSE 9 15 29.83 1010 10 16.0934 0 0
8:15 pm 20:15 Clear 72 22.2 55 13 56 56 SE 9 15 29.85 1011 10 16.0934 0 0
8:35 pm 20:35 Clear 71 21.5 55 13 59 59 SSE 9 15 29.85 1011 10 16.0934 0 0
8:55 pm 20:55 Clear 70 20.9 56 13.2 62 62 SSE 8 13 29.85 1011 10 16.0934 0 0
9:15 pm 21:15 Clear 69 20.6 56 13.5 64 64 SSE 8 13 29.88 1012 10 16.0934 0 0
9:35 pm 21:35 Clear 69 20.8 56 13.6 64 64 SSE 10 17 29.88 1012 10 16.0934 0 0
9:55 pm 21:55 Clear 69 20.8 57 13.8 64 64 SSE 9 15 29.88 1012 10 16.0934 0 0
10:15 pm 22:15 Clear 69 20.5 57 14.1 67 67 S 7 11 29.88 1012 10 16.0934 0 0
10:35 pm 22:35 Clear 68 20 58 14.4 70 70 S 7 11 29.88 1012 10 16.0934 0 0
10:55 pm 22:55 Clear 67 19.3 58 14.6 74 74 S 7 11 29.91 1013 10 16.0934 0 0
11:15 pm 23:15 Clear 66 19.1 59 15 77 77 S 6 9 29.91 1013 10 16.0934 0 0
11:35 pm 23:35 Clear 66 19 59 15.2 79 79 S 7 11 29.91 1013 10 16.0934 0 0
11:55 pm 23:55 Clear 66 18.7 60 15.5 82 82 S 10 17 29.91 1013 10 16.0934 0 0

Powered by AerisWeather